Location: *
(53.9002°N, 27.5624°E)
Time: 15:06:51
(UTC+00:00)

TSX-5 - Pass Details

Date: 12 November 2019
Orbit: 401 x 1335 km, 68.9° (Epoch: 14 December)

Event Time Altitude Azimuth Distance (km) Brightness Sun altitude
Rises 16:30:43 0° 224° (SW) 2,637 8.0 -19.6°
Reaches altitude 10° 16:32:40 10° 228° (SW) 1,852 7.2 -19.9°
Maximum altitude 16:36:46 67° 311° (NW) 723 4.5 -20.5°
Enters shadow 16:39:51 24° 29° (NNE) 1,529 5.8 -21.0°
